Tracking 20040 objects as of 19-Nov-2019
Live streaming from Space Station
objects crossing your sky now

DIRECTV 9S

Track DIRECTV 9S now!
DIRECTV 9S is classified as:


NORAD ID: 29494
Int'l Code: 2006-043A
Perigee: 35,780.6 km
Apogee: 35,806.7 km
Inclination: 0.0 °
Period: 1,436.1 minutes
Semi major axis: 42164 km
RCS: 13.8838 m2 (large)
Launch date: October 13, 2006
Source: United States (US)
Launch site: FRENCH GUIANA (FRGUI)

DIRECTV 9S will supply television broadcast services to the contiguous United States of America, Alaska and Hawaii
aabbcc
Your satellite tracking list
Your tracking list is empty




NASA's NSSDC Master Catalog

Two Line Element Set (TLE):
1 29494U 06043A   19322.41188723 -.00000109  00000-0  00000+0 0  9992
2 29494   0.0151 240.4638 0003087 358.4534 225.3502  1.00272079 48014
Source of the keplerian elements: AFSPC